Asheville, NC

8:02 PM EDT on July 27, 2017 (GMT -0400)
Asheville Regional

Weather History for KAVL - April, 2008

Change the Weather History Date:

Saturday, April 5, 2008

  Actual Average Record
Temperature  
Mean Temperature 55 °F 52 °F  
Max Temperature 58 °F 65 °F 86 °F (1909)
Min Temperature 52 °F 40 °F 20 °F (1944)
Degree Days  
Heating Degree Days 10 13  
Month to date heating degree days 45 67  
Since 1 July heating degree days 3607 3839  
Cooling Degree Days 0 0  
Month to date cooling degree days 0 0  
Year to date cooling degree days 0 1  
Growing Degree Days 4 (Base 50)    
Moisture  
Dew Point 54 °F    
Average Humidity 97    
Maximum Humidity 100    
Minimum Humidity 93    
Precipitation  
Precipitation 0.68 in 0.11 in 1.77 in (1911)
Month to date precipitation 1.40 0.57  
Year to date precipitation 12.26 11.83  
Snow  
Snow 0.00 in 0.10 in 0.60 in (1944)
Month to date snowfall 0.0 0.3  
Since 1 July snowfall 3.8 9.5  
Snow Depth -    
Sea Level Pressure  
Sea Level Pressure 29.90 in    
Wind  
Wind Speed 4 mph (NE)    
Max Wind Speed 20 mph    
Max Gust Speed 26 mph    
Visibility 7 miles    
Events Rain    
T = Trace of Precipitation, MM = Missing Value Source: NWS Daily Summary

Daily Weather History Graph

Daily Weather History Graph

Search for Another Location

Airport or City:

Trip Planner

Search our weather history database for the weather conditions in past years. The results will help you decide how hot, cold, wet, or windy it might be!

Date:

Astronomy

Apr. 05, 2008 Rise Set
Actual Time 7:10 AM EDT 7:55 PM EDT
Civil Twilight 6:44 AM EDT 8:21 PM EDT
Nautical Twilight 6:14 AM EDT 8:51 PM EDT
Astronomical Twilight 5:43 AM EDT 9:22 PM EDT
Moon 6:36 AM EDT (4/5) 7:43 PM EDT (4/5)
Length of Visible Light 13h 36m
Length of Day
12h 44m
Waning Crescent, 0% of the Moon is Illuminated
Apr 5
Waning Crescent
Apr 5
New
Apr 12
First Quarter
Apr 20
Full
Apr 28
Last Quarter

Hourly Weather History & Observations

Time (EDT) Temp. Dew Point Humidity Pressure Visibility Wind Dir Wind Speed Gust Speed Precip Events Conditions
12:54 AM 53.1 °F 52.0 °F 96% 29.88 in 9.0 mi Calm Calm - N/A   Overcast
1:54 AM 53.1 °F 52.0 °F 96% 29.89 in 10.0 mi Calm Calm - N/A   Overcast
2:54 AM 53.1 °F 52.0 °F 96% 29.85 in 10.0 mi North 5.8 mph - 0.00 in   Overcast
3:54 AM 53.1 °F 52.0 °F 96% 29.87 in 10.0 mi North 8.1 mph - 0.00 in Rain Light Rain
4:54 AM 53.1 °F 52.0 °F 96% 29.87 in 10.0 mi NNW 10.4 mph - 0.03 in Rain Light Rain
5:54 AM 53.1 °F 52.0 °F 96% 29.87 in 10.0 mi North 5.8 mph - 0.00 in Rain Light Rain
6:38 AM 51.8 °F 51.8 °F 100% 29.94 in 6.0 mi Calm Calm - N/A Rain Light Rain
6:54 AM 52.0 °F 52.0 °F 100% 29.90 in 7.0 mi Calm Calm - 0.06 in Rain Light Rain
7:03 AM 51.8 °F 51.8 °F 100% 29.94 in 8.0 mi North 4.6 mph - 0.01 in Rain Light Rain
7:30 AM 53.6 °F 51.8 °F 94% 29.95 in 10.0 mi North 4.6 mph - 0.02 in Rain Light Rain
7:54 AM 53.1 °F 52.0 °F 96% 29.95 in 6.0 mi NNW 4.6 mph - 0.04 in Rain Rain
8:06 AM 51.8 °F 51.8 °F 100% 29.99 in 7.0 mi Calm Calm - 0.01 in Rain Light Rain
8:33 AM 53.6 °F 51.8 °F 94% 29.98 in 10.0 mi North 3.5 mph - 0.02 in Rain Light Rain
8:42 AM 53.6 °F 51.8 °F 94% 29.98 in 10.0 mi Calm Calm - 0.03 in   Overcast
8:54 AM 53.1 °F 52.0 °F 96% 29.95 in 10.0 mi Calm Calm - 0.03 in Rain Light Rain
9:16 AM 53.6 °F 51.8 °F 94% 29.97 in 10.0 mi Calm Calm - 0.00 in Rain Light Rain
9:44 AM 53.6 °F 53.6 °F 100% 29.97 in 10.0 mi NW 6.9 mph - 0.00 in Rain Light Rain
9:54 AM 54.0 °F 53.1 °F 97% 29.95 in 10.0 mi NNW 8.1 mph - 0.00 in Rain Light Rain
10:29 AM 53.6 °F 53.6 °F 100% 29.98 in 10.0 mi NNW 4.6 mph - 0.00 in Rain Light Rain
10:45 AM 55.4 °F 53.6 °F 94% 29.98 in 10.0 mi NW 4.6 mph - 0.00 in Rain Light Rain
10:54 AM 54.0 °F 53.1 °F 97% 29.94 in 8.0 mi NW 3.5 mph - 0.01 in Rain Light Rain
11:54 AM 55.0 °F 53.1 °F 93% 29.95 in 4.0 mi Calm Calm - 0.03 in Rain Light Rain
12:54 PM 55.9 °F 54.0 °F 93% 29.92 in 8.0 mi Calm Calm - 0.05 in Rain Light Rain
1:54 PM 57.0 °F 55.9 °F 96% 29.90 in 10.0 mi Calm Calm - 0.01 in   Overcast
2:54 PM 57.9 °F 55.0 °F 90% 29.89 in 10.0 mi ESE 5.8 mph - N/A   Overcast
3:32 PM 57.2 °F 55.4 °F 94% 29.87 in 3.0 mi East 8.1 mph - 0.02 in Rain Light Rain
3:41 PM 57.2 °F 55.4 °F 94% 29.90 in 3.0 mi Variable 5.8 mph - 0.02 in Rain Light Rain
3:54 PM 57.0 °F 55.9 °F 96% 29.86 in 3.0 mi ESE 4.6 mph - 0.02 in   Overcast
4:54 PM 57.0 °F 55.9 °F 96% 29.85 in 7.0 mi ESE 4.6 mph - 0.00 in Rain Light Rain
5:01 PM 57.2 °F 55.4 °F 94% 29.87 in 4.0 mi ESE 6.9 mph - 0.00 in Rain Light Rain
5:05 PM 57.2 °F 55.4 °F 94% 29.86 in 2.5 mi East 8.1 mph - 0.00 in Rain Light Rain
5:22 PM 55.4 °F 55.4 °F 100% 29.87 in 2.5 mi ESE 3.5 mph - 0.00 in   Overcast
5:34 PM 57.2 °F 55.4 °F 94% 29.87 in 2.5 mi ESE 3.5 mph - 0.00 in Rain Light Rain
5:54 PM 57.0 °F 55.9 °F 96% 29.83 in 2.5 mi East 3.5 mph - 0.01 in Rain Light Rain
6:01 PM 57.2 °F 55.4 °F 94% 29.86 in 10.0 mi Calm Calm - 0.00 in Rain Light Rain
6:22 PM 57.2 °F 55.4 °F 94% 29.86 in 2.0 mi Calm Calm - 0.01 in Rain Light Rain
6:29 PM 57.2 °F 55.4 °F 94% 29.87 in 2.0 mi Calm Calm - 0.01 in Rain Light Rain
6:54 PM 57.0 °F 55.0 °F 93% 29.83 in 2.0 mi ESE 3.5 mph - 0.02 in Rain Light Rain
7:40 PM 57.2 °F 55.4 °F 94% 29.86 in 10.0 mi ESE 3.5 mph - 0.01 in   Overcast
7:54 PM 57.2 °F 55.4 °F 94% 29.86 in 10.0 mi SE 5.8 mph - N/A   Overcast
8:08 PM 57.2 °F 55.4 °F 94% 29.87 in 10.0 mi ESE 5.8 mph - N/A   Overcast
8:54 PM 57.0 °F 55.9 °F 96% 29.85 in 10.0 mi SE 8.1 mph - 0.00 in   Overcast
9:03 PM 57.2 °F 55.4 °F 94% 29.88 in 10.0 mi SE 6.9 mph - N/A   Overcast
9:23 PM 57.2 °F 55.4 °F 94% 29.88 in 10.0 mi SE 6.9 mph - N/A   Overcast
9:54 PM 57.0 °F 55.9 °F 96% 29.85 in 9.0 mi South 4.6 mph - N/A   Overcast
10:06 PM 57.2 °F 55.4 °F 94% 29.89 in 7.0 mi SSE 4.6 mph - N/A   Overcast
10:13 PM 57.2 °F 55.4 °F 94% 29.90 in 4.0 mi South 4.6 mph - 0.00 in Rain Light Rain
10:23 PM 57.2 °F 55.4 °F 94% 29.89 in 4.0 mi Calm Calm - 0.01 in Rain Light Rain
10:30 PM 57.2 °F 55.4 °F 94% 29.90 in 3.0 mi Calm Calm - 0.02 in Rain Light Rain
10:43 PM 55.4 °F 55.4 °F 100% 29.90 in 2.5 mi Calm Calm - 0.05 in Rain Rain
10:54 PM 57.0 °F 55.9 °F 96% 29.87 in 4.0 mi Calm Calm - 0.05 in Rain Light Rain
11:08 PM 55.4 °F 55.4 °F 100% 29.93 in 3.0 mi NW 19.6 mph 26.5 mph 0.00 in Rain Heavy Rain
11:14 PM 53.6 °F 51.8 °F 94% 29.93 in 1.8 mi NNW 16.1 mph 26.5 mph 0.09 in Rain Heavy Rain
11:21 PM 53.6 °F 51.8 °F 94% 29.92 in 2.0 mi NNW 13.8 mph - 0.15 in Rain Heavy Rain
11:28 PM 53.6 °F 51.8 °F 94% 29.92 in 3.0 mi North 10.4 mph - 0.18 in Rain Rain
11:54 PM 53.6 °F 51.8 °F 94% 29.93 in 8.0 mi NNW 4.6 mph - N/A Rain Light Rain